Hourly Data Report for June 29, 2022

PITT MEADOWS CS
BRITISH COLUMBIA
Current Station Operator: ECCC - MSC

49°12'29.964" N
122°41'24.076" W
5.00 m
1106178
71775
WMM

Download Data

Hourly Data (June 2022)
Hourly Data Report for June 29, 2022
TIME
LST
Temp Definition
°C
Dew Point Definition
°C
Rel Hum Definition
%
Precip. Amount Definition
mm

Wind Dir Definition
10's deg

Wind Spd Definition
km/h
Visibility Definition
km
Stn Press Definition
kPa
Hmdx Definition


Wind Chill Definition


Weather Definition


00:00 15.0 12.6 85 0.0 16 4   101.79     LegendNANA
01:00 14.9 12.4 85 0.0 22 2   101.82     LegendNANA
02:00 14.4 13.1 92 0.1 10 3   101.82     LegendNANA
03:00 14.6 13.1 91 0.0 6 3   101.83     LegendNANA
04:00 14.6 13.2 91 0.0 10 1   101.84     LegendNANA
05:00 14.6 13.2 91 0.0   0   101.85     LegendNANA
06:00 15.0 12.9 87 0.0 8 1   101.89     LegendNANA
07:00 15.4 12.6 83 0.0 15 3   101.94     LegendNANA
08:00 15.8 12.7 82 0.0 16 5   102.01     LegendNANA
09:00 15.9 12.2 78 0.0 16 7   102.04     LegendNANA
10:00 16.6 11.6 72 0.0 17 7   102.07     LegendNANA
11:00 17.2 11.4 69 0.0 18 7   102.10     LegendNANA
12:00 18.1 12.2 69 0.0 21 6   102.12     LegendNANA
13:00 17.8 11.2 65 0.0 24 4   102.14     LegendNANA
14:00 18.7 11.6 63 0.0 13 5   102.15     LegendNANA
15:00 19.2 11.3 60 0.0 8 9   102.13     LegendNANA
16:00 17.7 12.0 69 0.0 1 11   102.14     LegendNANA
17:00 17.4 12.1 71 0.0 1 8   102.12     LegendNANA
18:00 17.5 12.0 70 0.0 2 10   102.12     LegendNANA
19:00 17.8 12.0 69 0.0 1 5   102.09     LegendNANA
20:00 17.0 12.0 72 0.0 1 6   102.11     LegendNANA
21:00 16.2 12.7 80 0.0 1 5   102.13     LegendNANA
22:00 15.4 12.7 84 0.0 1 7   102.13     LegendNANA
23:00 14.6 12.4 86 0.0 33 3   102.12     LegendNANA

Notes on Data Quality.

Legend

  • E = Estimated
  • M = Missing
  • NA = Not Available*
  • [empty] = Indicates an unobserved value
Date modified: